This is the latest recevied weather packets stored in our database for station/object K5BOU. If no packets are shown the sender has not sent any weather packets the latest 10 day(s).
| Time | Temp. | Humidity | Pressure | Rain* | Wind** | Luminosity | Snow |
|---|---|---|---|---|---|---|---|
| 1788464469 | 26.11° C | 95% | 1011.7 hPa | 0 mm | - | 39 W/m² | - |
| 1788464165 | 26.67° C | 94% | 1011.9 hPa | 0 mm | - | 42 W/m² | - |
| 1788463860 | 26.67° C | 93% | 1012 hPa | 0 mm | - | 43 W/m² | - |
| 1788463557 | 27.22° C | 91% | 1012.4 hPa | 0 mm | - | 44 W/m² | - |
| 1788463251 | 27.22° C | 88% | 1012.3 hPa | 0 mm | - | 46 W/m² | - |
| 1788462943 | 27.22° C | 87% | 1012.4 hPa | 0 mm | - | 45 W/m² | - |
| 1788462643 | 27.78° C | 86% | 1012.4 hPa | 0 mm | - | 42 W/m² | - |
| 1788462342 | 27.78° C | 86% | 1012.3 hPa | 0 mm | - | 39 W/m² | - |
| 1788462042 | 28.33° C | 87% | 1012.5 hPa | 0 mm | - | 24 W/m² | - |
| 1788461737 | 28.89° C | 87% | 1012.4 hPa | 0 mm | - | 16 W/m² | - |
| 1788461433 | 29.44° C | 86% | 1012.2 hPa | 0 mm | - | 20 W/m² | - |
| 1788461129 | 29.44° C | 85% | 1011.9 hPa | 0 mm | - | 56 W/m² | - |
| 1788460824 | 29.44° C | 85% | 1011.8 hPa | 0 mm | - | 58 W/m² | - |
| 1788460523 | 30° C | 84% | 1012 hPa | 0 mm | - | 62 W/m² | - |
| 1788460218 | 30.56° C | 83% | 1011.8 hPa | 0 mm | - | 66 W/m² | - |
| 1788459916 | 30.56° C | 83% | 1011.8 hPa | 0 mm | - | 57 W/m² | - |
| 1788459613 | 30.56° C | 82% | 1011.9 hPa | 0 mm | - | 58 W/m² | - |
| 1788459306 | 30.56° C | 81% | 1011.9 hPa | 0 mm | - | 72 W/m² | - |
| 1788459006 | 30.56° C | 81% | 1011.7 hPa | 0 mm | - | 73 W/m² | - |
| 1788458701 | 30.56° C | 80% | 1011.7 hPa | 0 mm | - | 91 W/m² | - |
| 1788458400 | 31.11° C | 81% | 1012 hPa | 0 mm | - | 104 W/m² | - |
| 1788458094 | 31.67° C | 82% | 1012 hPa | 0 mm | - | 131 W/m² | - |
| 1788457793 | 32.78° C | 79% | 1012 hPa | 0 mm | - | 145 W/m² | - |
| 1788457489 | 32.22° C | 77% | 1012.2 hPa | 0 mm | - | 157 W/m² | - |
| 1788457188 | 32.78° C | 77% | 1012 hPa | 0 mm | - | 196 W/m² | - |
* Rain latest hour (hover to see other rain measurements)
** Current wind speed in m/s (hover to see current wind gust speed)